{"data":{"norad_id":59962,"intl_designator":"2024-107T","name":"STARLINK-31980","alt_names":[],"object_type":"PAYLOAD","status":"ACTIVE","operator":null,"country":"US","launch_date":"2024-06-05","launch_site_code":"AFETR","launch_vehicle":null,"mission":null,"orbit_class":"UNKNOWN","rcs_meters":null,"size_class":null,"mass_kg":null,"dimensions":null,"purposes":["comms"],"wikipedia_slug":null,"has_3d_model":false,"image_url":null,"decayed_at":null,"tle_current":{"epoch":"2026-05-25T02:21:54.371808Z","epoch_age_seconds":59898,"freshness":"FRESH","line1":"1 59962U 24107T   26145.09854597  .00000043  00000+0  13562-4 0  9997","line2":"2 59962  53.1608  70.7118 0001104  99.5750 260.5376 15.30192793111496","mean_motion":15.30192793,"eccentricity":0.0001104,"inclination_deg":53.1608,"raan_deg":70.7118,"arg_perigee_deg":99.575,"mean_anomaly_deg":260.5376,"bstar":1.3562e-5,"rev_number":11149,"period_min":94.105788929827,"perigee_km":474.47997586256,"apogee_km":475.99320075086,"semimajor_km":6853.3735883067,"source":"CELESTRAK","updated_at":"2026-05-25T13:38:19.130084Z"}}}